Weather History for KCNY - March, 2013

Change the Weather History Date:

Saturday, March 9, 2013

  Actual Average Record
Temperature  
Mean Temperature 41 °F 43 °F  
Max Temperature 46 °F 56 °F 85 °F (1989)
Min Temperature 35 °F 29 °F 10 °F (2002)
Degree Days  
Heating Degree Days 24 22  
Month to date heating degree days 190 213  
Since 1 July heating degree days 5120 4622  
Cooling Degree Days 0 0  
Month to date cooling degree days 0 0  
Year to date cooling degree days 0 0  
Moisture  
Dew Point 29 °F    
Average Humidity 64    
Maximum Humidity 79    
Minimum Humidity 48    
Precipitation  
Precipitation 0.01 in 0.03 in 0.59 in (1975)
Month to date precipitation 0.06 0.25  
Year to date precipitation 0.69 1.41  
Sea Level Pressure  
Sea Level Pressure 29.83 in    
Wind  
Wind Speed 9 mph (West)    
Max Wind Speed 21 mph    
Max Gust Speed 24 mph    
Visibility 10 miles    
Events Rain    
T = Trace of Precipitation, MM = Missing Value Source: NWS Daily Summary

Daily Weather History Graph

Daily Weather History Graph

Search for Another Location

Airport or City:

Trip Planner

Search our weather history database for the weather conditions in past years. The results will help you decide how hot, cold, wet, or windy it might be!

Date:

Astronomy

Mar. 09, 2013 Rise Set
Actual Time 6:39 AM MST 6:20 PM MST
Civil Twilight 6:12 AM MST 6:47 PM MST
Nautical Twilight 5:41 AM MST 7:17 PM MST
Astronomical Twilight 5:10 AM MST 7:48 PM MST
Moon 5:04 AM MST (3/9) 4:26 PM MST (3/9)
Length of Visible Light 12h 34m
Length of Day
11h 41m
Waning Crescent, 5% of the Moon is Illuminated
Mar 9
Waning Crescent
Mar 11
New
Mar 19
First Quarter
Mar 27
Full
Apr 2
Last Quarter

Hourly Weather History & Observations

Time (MST) Temp. Windchill Dew Point Humidity Pressure Visibility Wind Dir Wind Speed Gust Speed Precip Events Conditions
12:53 AM 42.1 °F 38.4 °F 34.0 °F 73% 29.60 in 10.0 mi ESE 5.8 mph - 0.00 in   Overcast
1:53 AM 39.9 °F 31.4 °F 35.1 °F 83% 29.62 in 10.0 mi SW 16.1 mph - 0.00 in Rain Light Rain
2:13 AM 39.2 °F 31.2 °F 33.8 °F 81% 29.65 in 10.0 mi SW 13.8 mph - 0.00 in Rain Light Rain
2:21 AM 37.4 °F 28.2 °F 33.8 °F 87% 29.65 in 10.0 mi SSW 16.1 mph 24.2 mph 0.00 in Rain Light Rain
2:53 AM 39.0 °F 33.4 °F 33.1 °F 79% 29.62 in 10.0 mi South 8.1 mph - 0.00 in   Overcast
3:53 AM 39.9 °F 31.4 °F 28.9 °F 65% 29.62 in 10.0 mi SSW 16.1 mph 21.9 mph N/A   Overcast
4:53 AM 39.0 °F 31.0 °F 27.0 °F 62% 29.66 in 10.0 mi South 13.8 mph 21.9 mph N/A   Overcast
5:53 AM 37.9 °F 30.9 °F 28.0 °F 68% 29.70 in 10.0 mi SW 10.4 mph - N/A   Overcast
6:53 AM 37.9 °F 33.5 °F 26.1 °F 62% 29.71 in 10.0 mi South 5.8 mph - N/A   Overcast
7:53 AM 37.9 °F 32.7 °F 27.0 °F 65% 29.73 in 10.0 mi WSW 6.9 mph - N/A   Overcast
8:53 AM 37.9 °F 32.1 °F 26.1 °F 62% 29.77 in 10.0 mi SSW 8.1 mph - N/A   Overcast
9:53 AM 39.0 °F 32.8 °F 26.1 °F 60% 29.79 in 10.0 mi WSW 9.2 mph - N/A   Overcast
10:53 AM 39.9 °F 33.9 °F 26.1 °F 58% 29.81 in 10.0 mi SW 9.2 mph - N/A   Overcast
11:53 AM 37.9 °F 32.1 °F 30.0 °F 73% 29.84 in 10.0 mi West 8.1 mph - 0.00 in Rain Light Rain
12:53 PM 39.0 °F 33.4 °F 30.9 °F 73% 29.85 in 10.0 mi WNW 8.1 mph - 0.00 in   Overcast
1:20 PM 37.4 °F 30.8 °F 33.8 °F 87% 29.86 in 7.0 mi WNW 9.2 mph - 0.00 in Rain Light Rain
1:50 PM 39.2 °F 34.2 °F 33.8 °F 81% 29.86 in 10.0 mi West 6.9 mph - 0.01 in   Overcast
1:53 PM 39.0 °F 34.8 °F 34.0 °F 82% 29.86 in 10.0 mi West 5.8 mph - 0.01 in   Overcast
2:12 PM 39.2 °F 34.2 °F 33.8 °F 81% 29.87 in 10.0 mi WNW 6.9 mph - N/A   Overcast
2:53 PM 39.0 °F 36.8 °F 33.1 °F 79% 29.89 in 10.0 mi Variable 3.5 mph - 0.00 in Rain Light Rain
3:53 PM 43.0 °F 38.2 °F 33.1 °F 68% 29.89 in 10.0 mi WNW 8.1 mph - N/A   Partly Cloudy
4:53 PM 43.0 °F 37.7 °F 33.1 °F 68% 29.91 in 10.0 mi NW 9.2 mph - N/A   Mostly Cloudy
5:53 PM 44.1 °F 41.5 °F 33.1 °F 65% 29.93 in 10.0 mi NE 4.6 mph - N/A   Mostly Cloudy
6:53 PM 41.0 °F 35.8 °F 27.0 °F 57% 29.98 in 10.0 mi NNE 8.1 mph - N/A   Mostly Cloudy
7:53 PM 42.1 °F 34.5 °F 24.1 °F 49% 30.01 in 10.0 mi NNE 15.0 mph 20.7 mph N/A   Overcast
8:53 PM 41.0 °F 34.3 °F 24.1 °F 51% 30.06 in 10.0 mi NE 11.5 mph - N/A   Mostly Cloudy
9:53 PM 39.9 °F 32.5 °F 23.0 °F 51% 30.09 in 10.0 mi NNE 12.7 mph - N/A   Partly Cloudy
10:53 PM 39.0 °F 33.4 °F 21.9 °F 50% 30.11 in 10.0 mi North 8.1 mph - N/A   Overcast
11:53 PM 37.0 °F 31.6 °F 19.9 °F 50% 30.14 in 10.0 mi NE 6.9 mph - N/A   Mostly Cloudy